logo tempoitalia

Diretta Meteo Melbourne, Australiadomenica 29 marzo ore 07:30

Mappa
Sereno 20 °C Sereno 24 Ore: T.min 17 T.max 27
Ponente Nord Km/h 35.2 Punto di rugiada: 7 °C Umidità: 42% Visibilità: 10 Km
Il sole sorge alle: 07:30 Il sole tramonta alle: 19:20
29 Marzo 2020 07:30 tempo osservato: Sereno Sereno 20 42 1012 vento: Nord N 35.2
29 Marzo 2020 07:00 tempo osservato: Sereno Sereno 20 39 1012 vento: Nord N 42.6
29 Marzo 2020 06:37 tempo osservato: Sereno Sereno 20 39 1012 vento: Nord N 44.4
29 Marzo 2020 06:30 tempo osservato: Sereno Sereno 20 39 1012 vento: Nord N 46.3
29 Marzo 2020 06:00 tempo osservato: Sereno Sereno 20 39 1012 vento: Nord N 42.6
29 Marzo 2020 05:30 tempo osservato: Sereno Sereno 20 39 1012 vento: Nord N 46.3
29 Marzo 2020 05:05 tempo osservato: Sereno Sereno 20 39 1012 vento: Nord N 42.6
29 Marzo 2020 05:00 tempo osservato: Sereno Sereno 20 39 1012 vento: Nord N 42.6
29 Marzo 2020 04:30 tempo osservato: Sereno Sereno 20 39 1012 vento: Nord N 35.2
29 Marzo 2020 04:00 tempo osservato: Sereno Sereno 20 39 1013 vento: Nord N/NE 31.5
29 Marzo 2020 03:30 tempo osservato: Sereno Sereno 20 37 1013 vento: Nord N/NE 37
29 Marzo 2020 03:00 tempo osservato: Sereno Sereno 19 42 1013 vento: Nord N 25.9
29 Marzo 2020 02:00 tempo osservato: Sereno Sereno 20 39 1014 vento: Nord N 31.5
29 Marzo 2020 01:30 tempo osservato: Sereno Sereno 20 39 1014 vento: Nord N 35.2
29 Marzo 2020 01:27 tempo osservato: Sereno Sereno 20 39 1014 vento: Nord N 35.2
29 Marzo 2020 00:30 tempo osservato: Sereno Sereno 21 40 1015 vento: Nord N 31.5
29 Marzo 2020 00:00 tempo osservato: Sereno Sereno 21 40 1015 vento: Nord N 29.6
28 Marzo 2020 23:30 tempo osservato: Sereno Sereno 21 40 1016 vento: Nord N/NE 33.3
28 Marzo 2020 23:00 tempo osservato: Sereno Sereno 22 37 1016 vento: Nord N/NE 29.6
28 Marzo 2020 22:30 tempo osservato: Sereno Sereno 21 43 1016 vento: Nord N/NE 24
28 Marzo 2020 22:00 tempo osservato: Sereno Sereno 20 45 1016 vento: Nord N/NE 13
28 Marzo 2020 21:30 tempo osservato: Sereno Sereno 21 46 1016 vento: Nord NE 22.2
28 Marzo 2020 21:00 tempo osservato: Sereno Sereno 22 43 1016 vento: Nord NE 18.5
28 Marzo 2020 20:30 tempo osservato: Sereno Sereno 22 43 1016 vento: Nord NE 14.8
28 Marzo 2020 20:00 tempo osservato: Sereno Sereno 23 40 1016 vento: Nord N/NE 20.3
28 Marzo 2020 19:30 tempo osservato: Sereno Sereno 24 38 1016 vento: Nord NE 18.5
28 Marzo 2020 19:00 tempo osservato: Sereno Sereno 25 36 1016 vento: Nord N/NE 22.2
28 Marzo 2020 18:30 tempo osservato: Sereno Sereno 25 36 1016 vento: Nord N/NE 27.8
28 Marzo 2020 18:00 tempo osservato: Sereno Sereno 26 34 1016 vento: Nord N/NE 25.9
28 Marzo 2020 17:30 tempo osservato: Sereno Sereno 27 32 1016 vento: Nord N/NE 25.9
28 Marzo 2020 17:00 tempo osservato: Sereno Sereno 27 34 1017 vento: Nord N/NE 31.5
28 Marzo 2020 16:30 tempo osservato: Sereno Sereno 27 34 1017 vento: Nord N 27.8
28 Marzo 2020 16:02 tempo osservato: Sereno Sereno 27 34 1017 vento: Nord N/NE 29.6
28 Marzo 2020 15:30 tempo osservato: Sereno Sereno 27 36 1017 vento: Nord N 31.5
28 Marzo 2020 15:10 tempo osservato: Poco Nuvoloso Poco Nuvoloso 26 36 1017 vento: Nord N/NE 33.3
28 Marzo 2020 15:00 tempo osservato: Poco Nuvoloso Poco Nuvoloso 27 36 1018 vento: Nord N/NE 35.2
28 Marzo 2020 14:00 tempo osservato: Sereno Sereno 26 39 1018 vento: Nord N/NE 37
28 Marzo 2020 13:30 tempo osservato: Sereno Sereno 25 38 1019 vento: Nord N 37
28 Marzo 2020 13:00 tempo osservato: Sereno Sereno 26 39 1019 vento: Nord N 42.6
28 Marzo 2020 12:34 tempo osservato: Sereno Sereno 25 41 1019 vento: Nord N 38.8
28 Marzo 2020 12:00 tempo osservato: Sereno Sereno 23 43 1020 vento: Nord N 40.7
28 Marzo 2020 11:30 tempo osservato: Sereno Sereno 23 43 1020 vento: Nord N 48.1
28 Marzo 2020 11:00 tempo osservato: Sereno Sereno 22 46 1020 vento: Nord N 46.3
28 Marzo 2020 10:30 tempo osservato: Sereno Sereno 21 49 1021 vento: Nord N 48.1
28 Marzo 2020 10:08 tempo osservato: Sereno Sereno 21 49 1021 vento: Nord N 42.6
28 Marzo 2020 10:00 tempo osservato: Sereno Sereno 21 49 1021 vento: Nord N 44.4
28 Marzo 2020 09:34 tempo osservato: Sereno Sereno 20 52 1021 vento: Nord N/NE 38.8
28 Marzo 2020 09:00 tempo osservato: Sereno Sereno 19 55 1021 vento: Nord N/NE 29.6
28 Marzo 2020 08:30 tempo osservato: Sereno Sereno 18 55 1021 vento: Nord N/NE 27.8
28 Marzo 2020 08:00 tempo osservato: Sereno Sereno 17 55 1021 vento: Nord N 27.8